Year,Month,Day,Hour,Minute,Value (Times are PST for temperature in C)
2009,02,20,00,00,-1.70
2009,02,20,00,01,-1.70
2009,02,20,00,03,-1.70
2009,02,20,00,04,-1.80
2009,02,20,00,05,-1.80
2009,02,20,00,06,-1.80
2009,02,20,00,07,-1.80
2009,02,20,00,08,-1.80
2009,02,20,00,09,-1.80
2009,02,20,00,10,-1.80
2009,02,20,00,11,-1.80
2009,02,20,00,12,-1.80
2009,02,20,00,13,-1.80
2009,02,20,00,14,-1.80
2009,02,20,00,15,-1.80
2009,02,20,00,16,-1.80
2009,02,20,00,17,-1.80
2009,02,20,00,18,-1.80
2009,02,20,00,19,-1.80
2009,02,20,00,21,-1.80
2009,02,20,00,22,-1.80
2009,02,20,00,23,-1.80
2009,02,20,00,24,-1.80
2009,02,20,00,25,-1.80
2009,02,20,00,26,-1.80
2009,02,20,00,27,-1.80
2009,02,20,00,28,-1.80
2009,02,20,00,29,-1.80
2009,02,20,00,30,-1.90
2009,02,20,00,31,-1.90
2009,02,20,00,32,-1.90
2009,02,20,00,33,-1.90
2009,02,20,00,34,-2.00
2009,02,20,00,36,-2.00
2009,02,20,00,37,-2.10
2009,02,20,00,38,-2.10
2009,02,20,00,39,-2.10
2009,02,20,00,40,-2.10
2009,02,20,00,41,-2.10
2009,02,20,00,42,-2.10
2009,02,20,00,43,-2.10
2009,02,20,00,44,-2.10
2009,02,20,00,45,-2.10
2009,02,20,00,46,-2.00
2009,02,20,00,47,-2.00
2009,02,20,00,48,-2.00
2009,02,20,00,49,-2.00
2009,02,20,00,50,-2.00
2009,02,20,00,51,-2.00
2009,02,20,00,52,-2.00
2009,02,20,00,53,-2.10
2009,02,20,00,54,-2.10
2009,02,20,00,55,-2.10
2009,02,20,00,56,-2.10
2009,02,20,00,57,-2.10
2009,02,20,00,58,-2.10
2009,02,20,00,59,-2.20
2009,02,20,01,00,-2.20
2009,02,20,01,01,-2.20
2009,02,20,01,02,-2.20
2009,02,20,01,03,-2.20
2009,02,20,01,04,-2.20
2009,02,20,01,05,-2.20
2009,02,20,01,06,-2.20
2009,02,20,01,07,-2.20
2009,02,20,01,08,-2.20
2009,02,20,01,09,-2.20
2009,02,20,01,10,-2.20
2009,02,20,01,11,-2.20
2009,02,20,01,12,-2.30
2009,02,20,01,13,-2.30
2009,02,20,01,14,-2.30
2009,02,20,01,15,-2.30
2009,02,20,01,16,-2.30
2009,02,20,01,17,-2.30
2009,02,20,01,18,-2.30
2009,02,20,01,19,-2.30
2009,02,20,01,20,-2.40
2009,02,20,01,21,-2.40
2009,02,20,01,22,-2.40
2009,02,20,01,23,-2.40
2009,02,20,01,24,-2.40
2009,02,20,01,25,-2.40
2009,02,20,01,26,-2.40
2009,02,20,01,27,-2.40
2009,02,20,01,28,-2.40
2009,02,20,01,29,-2.40
2009,02,20,01,30,-2.40
2009,02,20,01,31,-2.40
2009,02,20,01,32,-2.40
2009,02,20,01,33,-2.40
2009,02,20,01,34,-2.50
2009,02,20,01,35,-2.50
2009,02,20,01,36,-2.40
2009,02,20,01,37,-2.40
2009,02,20,01,38,-2.40
2009,02,20,01,39,-2.40
2009,02,20,01,41,-2.40
2009,02,20,01,42,-2.40
2009,02,20,01,43,-2.40
2009,02,20,01,44,-2.40
2009,02,20,01,45,-2.40
2009,02,20,01,46,-2.40
2009,02,20,01,47,-2.40
2009,02,20,01,48,-2.40
2009,02,20,01,49,-2.30
2009,02,20,01,50,-2.40
2009,02,20,01,51,-2.30
2009,02,20,01,52,-2.30
2009,02,20,01,53,-2.30
2009,02,20,01,54,-2.30
2009,02,20,01,55,-2.30
2009,02,20,01,56,-2.30
2009,02,20,01,57,-2.30
2009,02,20,01,58,-2.30
2009,02,20,01,59,-2.30
2009,02,20,02,00,-2.30
2009,02,20,02,01,-2.30
2009,02,20,02,02,-2.20
2009,02,20,02,03,-2.20
2009,02,20,02,05,-2.20
2009,02,20,02,06,-2.20
2009,02,20,02,07,-2.20
2009,02,20,02,08,-2.20
2009,02,20,02,09,-2.20
2009,02,20,02,11,-2.10
2009,02,20,02,12,-2.10
2009,02,20,02,13,-2.10
2009,02,20,02,14,-2.10
2009,02,20,02,15,-2.10
2009,02,20,02,16,-2.10
2009,02,20,02,17,-2.10
2009,02,20,02,18,-2.10
2009,02,20,02,19,-2.10
2009,02,20,02,20,-2.10
2009,02,20,02,21,-2.10
2009,02,20,02,22,-2.10
2009,02,20,02,23,-2.10
2009,02,20,02,24,-2.20
2009,02,20,02,25,-2.20
2009,02,20,02,26,-2.20
2009,02,20,02,27,-2.20
2009,02,20,02,28,-2.20
2009,02,20,02,29,-2.20
2009,02,20,02,30,-2.20
2009,02,20,02,31,-2.20
2009,02,20,02,32,-2.30
2009,02,20,02,33,-2.20
2009,02,20,02,34,-2.30
2009,02,20,02,36,-2.30
2009,02,20,02,37,-2.30
2009,02,20,02,38,-2.30
2009,02,20,02,39,-2.30
2009,02,20,02,40,-2.30
2009,02,20,02,41,-2.30
2009,02,20,02,42,-2.30
2009,02,20,02,43,-2.30
2009,02,20,02,44,-2.30
2009,02,20,02,45,-2.30
2009,02,20,02,46,-2.30
2009,02,20,02,47,-2.30
2009,02,20,02,48,-2.30
2009,02,20,02,49,-2.30
2009,02,20,02,50,-2.30
2009,02,20,02,51,-2.30
2009,02,20,02,52,-2.30
2009,02,20,02,53,-2.30
2009,02,20,02,54,-2.30
2009,02,20,02,55,-2.30
2009,02,20,02,56,-2.30
2009,02,20,02,57,-2.30
2009,02,20,02,58,-2.30
2009,02,20,02,59,-2.30
2009,02,20,03,00,-2.30
2009,02,20,03,01,-2.30
2009,02,20,03,02,-2.30
2009,02,20,03,03,-2.30
2009,02,20,03,04,-2.30
2009,02,20,03,05,-2.30
2009,02,20,03,06,-2.30
2009,02,20,03,07,-2.30
2009,02,20,03,15,-2.30
2009,02,20,03,16,-2.30
2009,02,20,03,17,-2.30
2009,02,20,03,18,-2.30
2009,02,20,03,19,-2.30
2009,02,20,03,20,-2.30
2009,02,20,03,21,-2.30
2009,02,20,03,22,-2.30
2009,02,20,03,23,-2.30
2009,02,20,03,24,-2.30
2009,02,20,03,25,-2.30
2009,02,20,03,26,-2.30
2009,02,20,03,27,-2.30
2009,02,20,03,28,-2.30
2009,02,20,03,29,-2.30
2009,02,20,03,30,-2.30
2009,02,20,03,31,-2.30
2009,02,20,03,32,-2.30
2009,02,20,03,34,-2.30
2009,02,20,03,35,-2.30
2009,02,20,03,36,-2.30
2009,02,20,03,37,-2.30
2009,02,20,03,38,-2.30
2009,02,20,03,39,-2.30
2009,02,20,03,40,-2.30
2009,02,20,03,41,-2.30
2009,02,20,03,42,-2.30
2009,02,20,03,43,-2.30
2009,02,20,03,44,-2.30
2009,02,20,03,45,-2.30
2009,02,20,03,46,-2.30
2009,02,20,03,47,-2.30
2009,02,20,03,49,-2.30
2009,02,20,03,50,-2.30
2009,02,20,03,51,-2.30
2009,02,20,03,52,-2.30
2009,02,20,03,53,-2.30
2009,02,20,03,54,-2.30
2009,02,20,03,55,-2.30
2009,02,20,03,56,-2.30
2009,02,20,03,57,-2.30
2009,02,20,03,58,-2.30
2009,02,20,03,59,-2.30
2009,02,20,04,00,-2.30
2009,02,20,04,01,-2.40
2009,02,20,04,02,-2.40
2009,02,20,04,03,-2.40
2009,02,20,04,04,-2.40
2009,02,20,04,05,-2.40
2009,02,20,04,06,-2.40
2009,02,20,04,07,-2.40
2009,02,20,04,08,-2.40
2009,02,20,04,09,-2.40
2009,02,20,04,10,-2.40
2009,02,20,04,11,-2.40
2009,02,20,04,12,-2.40
2009,02,20,04,13,-2.40
2009,02,20,04,14,-2.40
2009,02,20,04,15,-2.40
2009,02,20,04,16,-2.40
2009,02,20,04,18,-2.40
2009,02,20,04,19,-2.40
2009,02,20,04,20,-2.40
2009,02,20,04,21,-2.40
2009,02,20,04,22,-2.40
2009,02,20,04,23,-2.40
2009,02,20,04,24,-2.40
2009,02,20,04,25,-2.50
2009,02,20,04,26,-2.50
2009,02,20,04,27,-2.50
2009,02,20,04,28,-2.50
2009,02,20,04,29,-2.50
2009,02,20,04,30,-2.50
2009,02,20,04,31,-2.40
2009,02,20,04,32,-2.40
2009,02,20,04,34,-2.40
2009,02,20,04,35,-2.40
2009,02,20,04,36,-2.40
2009,02,20,04,37,-2.40
2009,02,20,04,38,-2.40
2009,02,20,04,39,-2.40
2009,02,20,04,40,-2.40
2009,02,20,04,41,-2.40
2009,02,20,04,42,-2.40
2009,02,20,04,43,-2.40
2009,02,20,04,44,-2.40
2009,02,20,04,45,-2.50
2009,02,20,04,46,-2.50
2009,02,20,04,47,-2.50
2009,02,20,04,48,-2.50
2009,02,20,04,49,-2.50
2009,02,20,04,50,-2.50
2009,02,20,04,51,-2.60
2009,02,20,04,52,-2.60
2009,02,20,04,53,-2.60
2009,02,20,04,54,-2.60
2009,02,20,04,55,-2.60
2009,02,20,04,56,-2.60
2009,02,20,04,57,-2.60
2009,02,20,04,58,-2.60
2009,02,20,04,59,-2.60
2009,02,20,05,00,-2.60
2009,02,20,05,01,-2.60
2009,02,20,05,02,-2.60
2009,02,20,05,03,-2.60
2009,02,20,05,05,-2.70
2009,02,20,05,06,-2.70
2009,02,20,05,07,-2.70
2009,02,20,05,08,-2.70
2009,02,20,05,09,-2.70
2009,02,20,05,10,-2.70
2009,02,20,05,11,-2.70
2009,02,20,05,12,-2.70
2009,02,20,05,13,-2.70
2009,02,20,05,14,-2.70
2009,02,20,05,15,-2.70
2009,02,20,05,16,-2.70
2009,02,20,05,17,-2.70
2009,02,20,05,18,-2.70
2009,02,20,05,19,-2.70
2009,02,20,05,20,-2.70
2009,02,20,05,21,-2.70
2009,02,20,05,22,-2.70
2009,02,20,05,23,-2.70
2009,02,20,05,25,-2.70
2009,02,20,05,26,-2.70
2009,02,20,05,27,-2.70
2009,02,20,05,28,-2.60
2009,02,20,05,29,-2.60
2009,02,20,05,30,-2.60
2009,02,20,05,31,-2.60
2009,02,20,05,32,-2.60
2009,02,20,05,33,-2.60
2009,02,20,05,34,-2.60
2009,02,20,05,35,-2.60
2009,02,20,05,36,-2.60
2009,02,20,05,37,-2.70
2009,02,20,05,38,-2.60
2009,02,20,05,39,-2.70
2009,02,20,05,40,-2.70
2009,02,20,05,41,-2.70
2009,02,20,05,42,-2.70
2009,02,20,05,43,-2.70
2009,02,20,05,44,-2.70
2009,02,20,05,45,-2.70
2009,02,20,05,46,-2.70
2009,02,20,05,47,-2.70
2009,02,20,05,48,-2.70
2009,02,20,05,49,-2.70
2009,02,20,05,50,-2.70
2009,02,20,05,51,-2.70
2009,02,20,05,52,-2.70
2009,02,20,05,53,-2.70
2009,02,20,05,54,-2.70
2009,02,20,05,55,-2.80
2009,02,20,05,56,-2.80
2009,02,20,05,57,-2.80
2009,02,20,05,58,-2.80
2009,02,20,05,59,-2.80
2009,02,20,06,00,-2.80
2009,02,20,06,01,-2.80
2009,02,20,06,02,-2.80
2009,02,20,06,03,-2.80
2009,02,20,06,04,-2.80
2009,02,20,06,05,-2.80
2009,02,20,06,06,-2.80
2009,02,20,06,07,-2.80
2009,02,20,06,08,-2.80
2009,02,20,06,09,-2.80
2009,02,20,06,10,-2.80
2009,02,20,06,11,-2.80
2009,02,20,06,12,-2.80
2009,02,20,06,13,-2.80
2009,02,20,06,14,-2.80
2009,02,20,06,15,-2.70
2009,02,20,06,16,-2.70
2009,02,20,06,17,-2.70
2009,02,20,06,18,-2.70
2009,02,20,06,19,-2.70
2009,02,20,06,20,-2.70
2009,02,20,06,21,-2.70
2009,02,20,06,22,-2.70
2009,02,20,06,23,-2.80
2009,02,20,06,24,-2.80
2009,02,20,06,25,-2.80
2009,02,20,06,26,-2.70
2009,02,20,06,27,-2.80
2009,02,20,06,28,-2.70
2009,02,20,06,29,-2.80
2009,02,20,06,30,-2.80
2009,02,20,06,31,-2.80
2009,02,20,06,32,-2.70
2009,02,20,06,33,-2.70
2009,02,20,06,34,-2.70
2009,02,20,06,35,-2.70
2009,02,20,06,36,-2.70
2009,02,20,06,37,-2.70
2009,02,20,06,38,-2.70
2009,02,20,06,39,-2.70
2009,02,20,06,40,-2.70
2009,02,20,06,41,-2.70
2009,02,20,06,42,-2.70
2009,02,20,06,43,-2.70
2009,02,20,06,44,-2.70
2009,02,20,06,45,-2.70
2009,02,20,06,46,-2.70
2009,02,20,06,47,-2.70
2009,02,20,06,48,-2.70
2009,02,20,06,49,-2.70
2009,02,20,06,50,-2.70
2009,02,20,06,51,-2.70
2009,02,20,06,52,-2.70
2009,02,20,06,53,-2.70
2009,02,20,06,55,-2.70
2009,02,20,06,56,-2.70
2009,02,20,06,57,-2.70
2009,02,20,06,58,-2.70
2009,02,20,06,59,-2.70
2009,02,20,07,00,-2.70
2009,02,20,07,01,-2.70
2009,02,20,07,02,-2.70
2009,02,20,07,03,-2.70
2009,02,20,07,04,-2.70
2009,02,20,07,05,-2.70
2009,02,20,07,06,-2.70
2009,02,20,07,07,-2.70
2009,02,20,07,08,-2.70
2009,02,20,07,09,-2.70
2009,02,20,07,10,-2.70
2009,02,20,07,11,-2.70
2009,02,20,07,12,-2.70
2009,02,20,07,13,-2.70
2009,02,20,07,14,-2.70
2009,02,20,07,15,-2.70
2009,02,20,07,16,-2.70
2009,02,20,07,17,-2.70
2009,02,20,07,18,-2.70
2009,02,20,07,19,-2.70
2009,02,20,07,20,-2.70
2009,02,20,07,21,-2.70
2009,02,20,07,22,-2.70
2009,02,20,07,23,-2.70
2009,02,20,07,24,-2.70
2009,02,20,07,25,-2.70
2009,02,20,07,26,-2.70
2009,02,20,07,27,-2.70
2009,02,20,07,28,-2.70
2009,02,20,07,29,-2.70
2009,02,20,07,30,-2.70
2009,02,20,07,31,-2.70
2009,02,20,07,32,-2.70
2009,02,20,07,33,-2.70
2009,02,20,07,34,-2.70
2009,02,20,07,35,-2.70
2009,02,20,07,36,-2.70
2009,02,20,07,37,-2.70
2009,02,20,07,38,-2.70
2009,02,20,07,39,-2.70
2009,02,20,07,40,-2.70
2009,02,20,07,41,-2.70
2009,02,20,07,42,-2.80
2009,02,20,07,43,-2.80
2009,02,20,07,44,-2.80
2009,02,20,07,45,-2.80
2009,02,20,07,46,-2.80
2009,02,20,07,47,-2.80
2009,02,20,07,48,-2.70
2009,02,20,07,49,-2.80
2009,02,20,07,50,-2.80
2009,02,20,07,51,-2.80
2009,02,20,07,52,-2.70
2009,02,20,07,53,-2.70
2009,02,20,07,54,-2.70
2009,02,20,07,55,-2.70
2009,02,20,07,56,-2.70
2009,02,20,07,57,-2.70
2009,02,20,07,58,-2.70
2009,02,20,07,59,-2.70
2009,02,20,08,00,-2.70
2009,02,20,08,02,-2.70
2009,02,20,08,03,-2.70
2009,02,20,08,04,-2.70
2009,02,20,08,05,-2.70
2009,02,20,08,07,-2.70
2009,02,20,08,09,-2.70
2009,02,20,08,10,-2.70
2009,02,20,08,11,-2.70
2009,02,20,08,12,-2.70
2009,02,20,08,13,-2.70
2009,02,20,08,14,-2.70
2009,02,20,08,15,-2.70
2009,02,20,08,16,-2.70
2009,02,20,08,17,-2.70
2009,02,20,08,18,-2.70
2009,02,20,08,19,-2.80
2009,02,20,08,20,-2.80
2009,02,20,08,21,-2.80
2009,02,20,08,22,-2.80
2009,02,20,08,23,-2.80
2009,02,20,08,24,-2.80
2009,02,20,08,25,-2.80
2009,02,20,08,26,-2.80
2009,02,20,08,27,-2.80
2009,02,20,08,28,-2.80
2009,02,20,08,29,-2.80
2009,02,20,08,30,-2.80
2009,02,20,08,31,-2.80
2009,02,20,08,32,-2.80
2009,02,20,08,33,-2.80
2009,02,20,08,34,-2.80
2009,02,20,08,35,-2.80
2009,02,20,08,36,-2.90
2009,02,20,08,37,-2.90
2009,02,20,08,38,-2.90
2009,02,20,08,39,-2.90
2009,02,20,08,40,-2.90
2009,02,20,08,41,-2.90
2009,02,20,08,42,-2.90
2009,02,20,08,43,-2.90
2009,02,20,08,44,-2.90
2009,02,20,08,45,-2.90
2009,02,20,08,46,-2.90
2009,02,20,08,47,-2.90
2009,02,20,08,48,-2.90
2009,02,20,08,50,-2.80
2009,02,20,08,51,-2.80
2009,02,20,08,52,-2.80
2009,02,20,08,53,-2.80
2009,02,20,08,54,-2.80
2009,02,20,08,55,-2.80
2009,02,20,08,56,-2.80
2009,02,20,08,57,-2.80
2009,02,20,08,58,-2.80
2009,02,20,08,59,-2.80
2009,02,20,09,00,-2.80
2009,02,20,09,01,-2.80
2009,02,20,09,02,-2.70
2009,02,20,09,03,-2.70
2009,02,20,09,04,-2.70
2009,02,20,09,05,-2.70
2009,02,20,09,06,-2.70
2009,02,20,09,07,-2.70
2009,02,20,09,08,-2.70
2009,02,20,09,09,-2.70
2009,02,20,09,10,-2.70
2009,02,20,09,11,-2.70
2009,02,20,09,12,-2.70
2009,02,20,09,13,-2.70
2009,02,20,09,14,-2.70
2009,02,20,09,15,-2.70
2009,02,20,09,16,-2.70
2009,02,20,09,17,-2.80
2009,02,20,09,18,-2.80
2009,02,20,09,19,-2.80
2009,02,20,09,20,-2.80
2009,02,20,09,21,-2.80
2009,02,20,09,22,-2.70
2009,02,20,09,23,-2.70
2009,02,20,09,24,-2.70
2009,02,20,09,25,-2.70
2009,02,20,09,26,-2.60
2009,02,20,09,27,-2.60
2009,02,20,09,28,-2.60
2009,02,20,09,29,-2.60
2009,02,20,09,30,-2.60
2009,02,20,09,31,-2.60
2009,02,20,09,32,-2.50
2009,02,20,09,33,-2.50
2009,02,20,09,34,-2.40
2009,02,20,09,35,-2.40
2009,02,20,09,36,-2.40
2009,02,20,09,37,-2.40
2009,02,20,09,38,-2.40
2009,02,20,09,39,-2.30
2009,02,20,09,40,-2.30
2009,02,20,09,41,-2.30
2009,02,20,09,42,-2.20
2009,02,20,09,43,-2.20
2009,02,20,09,44,-2.20
2009,02,20,09,45,-2.30
2009,02,20,09,46,-2.30
2009,02,20,09,47,-2.30
2009,02,20,09,48,-2.30
2009,02,20,09,49,-2.30
2009,02,20,09,50,-2.20
2009,02,20,09,51,-2.20
2009,02,20,09,52,-2.10
2009,02,20,09,53,-2.10
2009,02,20,09,54,-2.10
2009,02,20,09,55,-2.10
2009,02,20,09,56,-2.10
2009,02,20,09,57,-2.10
2009,02,20,09,58,-2.10
2009,02,20,09,59,-2.10
2009,02,20,10,00,-2.10
2009,02,20,10,01,-2.10
2009,02,20,10,02,-2.10
2009,02,20,10,03,-2.10
2009,02,20,10,04,-2.10
2009,02,20,10,05,-2.00
2009,02,20,10,06,-2.00
2009,02,20,10,07,-2.00
2009,02,20,10,08,-2.00
2009,02,20,10,09,-2.00
2009,02,20,10,10,-2.10
2009,02,20,10,11,-2.10
2009,02,20,10,12,-2.00
2009,02,20,10,13,-2.00
2009,02,20,10,14,-1.90
2009,02,20,10,15,-1.90
2009,02,20,10,16,-1.90
2009,02,20,10,17,-1.90
2009,02,20,10,18,-1.90
2009,02,20,10,19,-1.90
2009,02,20,10,20,-1.80
2009,02,20,10,21,-1.80
2009,02,20,10,22,-1.80
2009,02,20,10,23,-1.80
2009,02,20,10,24,-1.80
2009,02,20,10,25,-1.70
2009,02,20,10,26,-1.70
2009,02,20,10,27,-1.70
2009,02,20,10,28,-1.70
2009,02,20,10,29,-1.70
2009,02,20,10,30,-1.70
2009,02,20,10,31,-1.60
2009,02,20,10,32,-1.60
2009,02,20,10,33,-1.50
2009,02,20,10,34,-1.40
2009,02,20,10,35,-1.30
2009,02,20,10,36,-1.30
2009,02,20,10,37,-1.20
2009,02,20,10,38,-1.20
2009,02,20,10,39,-1.10
2009,02,20,10,40,-1.00
2009,02,20,10,41,-0.90
2009,02,20,10,42,-0.90
2009,02,20,10,43,-0.80
2009,02,20,10,44,-0.80
2009,02,20,10,45,-0.80
2009,02,20,10,46,-0.70
2009,02,20,10,47,-0.70
2009,02,20,10,48,-0.70
2009,02,20,10,49,-0.70
2009,02,20,10,50,-0.60
2009,02,20,10,51,-0.60
2009,02,20,10,52,-0.60
2009,02,20,10,53,-0.50
2009,02,20,10,54,-0.50
2009,02,20,10,55,-0.50
2009,02,20,10,56,-0.40
2009,02,20,10,57,-0.40
2009,02,20,10,58,-0.40
2009,02,20,10,59,-0.30
2009,02,20,11,00,-0.30
2009,02,20,11,01,-0.20
2009,02,20,11,02,-0.20
2009,02,20,11,03,-0.20
2009,02,20,11,04,-0.10
2009,02,20,11,05,0.00
2009,02,20,11,06,0.10
2009,02,20,11,07,0.10
2009,02,20,11,08,0.20
2009,02,20,11,09,0.30
2009,02,20,11,10,0.30
2009,02,20,11,11,0.40
2009,02,20,11,12,0.50
2009,02,20,11,13,0.60
2009,02,20,11,14,0.70
2009,02,20,11,15,0.80
2009,02,20,11,16,0.80
2009,02,20,11,17,0.90
2009,02,20,11,18,1.00
2009,02,20,11,19,1.10
2009,02,20,11,20,1.20
2009,02,20,11,21,1.30
2009,02,20,11,22,1.30
2009,02,20,11,23,1.30
2009,02,20,11,24,1.40
2009,02,20,11,25,1.40
2009,02,20,11,26,1.40
2009,02,20,11,27,1.50
2009,02,20,11,28,1.50
2009,02,20,11,29,1.50
2009,02,20,11,30,1.60
2009,02,20,11,31,1.60
2009,02,20,11,32,1.60
2009,02,20,11,33,1.60
2009,02,20,11,34,1.60
2009,02,20,11,35,1.60
2009,02,20,11,36,1.60
2009,02,20,11,37,1.60
2009,02,20,11,38,1.60
2009,02,20,11,39,1.60
2009,02,20,11,40,1.60
2009,02,20,11,41,1.60
2009,02,20,11,42,1.60
2009,02,20,11,43,1.70
2009,02,20,11,44,1.70
2009,02,20,11,45,1.70
2009,02,20,11,46,1.70
2009,02,20,11,47,1.80
2009,02,20,11,48,1.80
2009,02,20,11,49,1.90
2009,02,20,11,50,2.00
2009,02,20,11,51,2.10
2009,02,20,11,52,2.10
2009,02,20,11,53,2.20
2009,02,20,11,54,2.20
2009,02,20,11,55,2.30
2009,02,20,11,56,2.30
2009,02,20,11,57,2.40
2009,02,20,11,58,2.40
2009,02,20,11,59,2.50
2009,02,20,12,00,2.60
2009,02,20,12,01,2.70
2009,02,20,12,02,2.70
2009,02,20,12,03,2.80
2009,02,20,12,05,2.90
2009,02,20,12,06,3.00
2009,02,20,12,07,3.10
2009,02,20,12,08,3.20
2009,02,20,12,09,3.20
2009,02,20,12,10,3.20
2009,02,20,12,11,3.30
2009,02,20,12,12,3.30
2009,02,20,12,13,3.30
2009,02,20,12,14,3.30
2009,02,20,12,15,3.30
2009,02,20,12,16,3.30
2009,02,20,12,17,3.30
2009,02,20,12,18,3.30
2009,02,20,12,20,3.40
2009,02,20,12,21,3.40
2009,02,20,12,22,3.40
2009,02,20,12,23,3.50
2009,02,20,12,24,3.50
2009,02,20,12,25,3.60
2009,02,20,12,26,3.60
2009,02,20,12,27,3.60
2009,02,20,12,28,3.60
2009,02,20,12,29,3.60
2009,02,20,12,30,3.70
2009,02,20,12,31,3.70
2009,02,20,12,32,3.70
2009,02,20,12,33,3.70
2009,02,20,12,34,3.80
2009,02,20,12,35,3.80
2009,02,20,12,36,3.90
2009,02,20,12,37,3.90
2009,02,20,12,38,4.00
2009,02,20,12,39,4.10
2009,02,20,12,40,4.10
2009,02,20,12,41,4.20
2009,02,20,12,42,4.30
2009,02,20,12,43,4.30
2009,02,20,12,44,4.40
2009,02,20,12,45,4.50
2009,02,20,12,46,4.60
2009,02,20,12,47,4.60
2009,02,20,12,48,4.70
2009,02,20,12,49,4.70
2009,02,20,12,50,4.80
2009,02,20,12,51,4.90
2009,02,20,12,52,4.90
2009,02,20,12,53,5.00
2009,02,20,12,54,5.10
2009,02,20,12,55,5.10
2009,02,20,12,56,5.10
2009,02,20,12,57,5.10
2009,02,20,12,58,5.20
2009,02,20,12,59,5.20
2009,02,20,13,00,5.30
2009,02,20,13,01,5.30
2009,02,20,13,02,5.30
2009,02,20,13,03,5.30
2009,02,20,13,04,5.30
2009,02,20,13,05,5.40
2009,02,20,13,06,5.50
2009,02,20,13,07,5.60
2009,02,20,13,08,5.70
2009,02,20,13,09,5.70
2009,02,20,13,10,5.80
2009,02,20,13,11,5.90
2009,02,20,13,12,6.00
2009,02,20,13,13,6.10
2009,02,20,13,14,6.20
2009,02,20,13,15,6.30
2009,02,20,13,16,6.40
2009,02,20,13,17,6.50
2009,02,20,13,18,6.60
2009,02,20,13,19,6.70
2009,02,20,13,20,6.80
2009,02,20,13,21,6.90
2009,02,20,13,22,7.00
2009,02,20,13,23,7.10
2009,02,20,13,24,7.20
2009,02,20,13,25,7.20
2009,02,20,13,26,7.30
2009,02,20,13,27,7.40
2009,02,20,13,28,7.50
2009,02,20,13,29,7.50
2009,02,20,13,30,7.60
2009,02,20,13,31,7.70
2009,02,20,13,32,7.70
2009,02,20,13,33,7.70
2009,02,20,13,34,7.70
2009,02,20,13,35,7.70
2009,02,20,13,36,7.60
2009,02,20,13,37,7.70
2009,02,20,13,38,7.70
2009,02,20,13,39,7.70
2009,02,20,13,40,7.70
2009,02,20,13,41,7.70
2009,02,20,13,42,7.70
2009,02,20,13,43,7.70
2009,02,20,13,44,7.70
2009,02,20,13,45,7.70
2009,02,20,13,46,7.70
2009,02,20,13,47,7.70
2009,02,20,13,48,7.60
2009,02,20,13,49,7.60
2009,02,20,13,50,7.50
2009,02,20,13,51,7.50
2009,02,20,13,52,7.60
2009,02,20,13,53,7.60
2009,02,20,13,54,7.60
2009,02,20,13,55,7.60
2009,02,20,13,56,7.70
2009,02,20,13,57,7.70
2009,02,20,13,58,7.70
2009,02,20,13,59,7.80
2009,02,20,14,00,7.80
2009,02,20,14,01,7.90
2009,02,20,14,02,7.90
2009,02,20,14,03,8.00
2009,02,20,14,04,8.10
2009,02,20,14,05,8.10
2009,02,20,14,06,8.20
2009,02,20,14,07,8.30
2009,02,20,14,08,8.30
2009,02,20,14,09,8.40
2009,02,20,14,10,8.40
2009,02,20,14,11,8.50
2009,02,20,14,12,8.50
2009,02,20,14,13,8.60
2009,02,20,14,14,8.60
2009,02,20,14,15,8.60
2009,02,20,14,16,8.60
2009,02,20,14,17,8.70
2009,02,20,14,18,8.80
2009,02,20,14,19,8.80
2009,02,20,14,20,8.90
2009,02,20,14,21,8.90
2009,02,20,14,22,9.10
2009,02,20,14,23,9.10
2009,02,20,14,24,9.20
2009,02,20,14,25,9.30
2009,02,20,14,26,9.40
2009,02,20,14,27,9.40
2009,02,20,14,28,9.50
2009,02,20,14,29,9.60
2009,02,20,14,30,9.60
2009,02,20,14,31,9.50
2009,02,20,14,32,9.50
2009,02,20,14,33,9.60
2009,02,20,14,34,9.70
2009,02,20,14,35,9.70
2009,02,20,14,36,9.80
2009,02,20,14,37,9.90
2009,02,20,14,38,10.10
2009,02,20,14,39,10.10
2009,02,20,14,40,10.20
2009,02,20,14,41,10.20
2009,02,20,14,42,10.30
2009,02,20,14,43,10.30
2009,02,20,14,45,10.30
2009,02,20,14,46,10.30
2009,02,20,14,47,10.30
2009,02,20,14,48,10.30
2009,02,20,14,49,10.30
2009,02,20,14,50,10.30
2009,02,20,14,51,10.40
2009,02,20,14,52,10.40
2009,02,20,14,53,10.40
2009,02,20,14,54,10.40
2009,02,20,14,55,10.50
2009,02,20,14,56,10.60
2009,02,20,14,57,10.60
2009,02,20,14,58,10.70
2009,02,20,14,59,10.80
2009,02,20,15,00,10.90
2009,02,20,15,01,11.00
2009,02,20,15,02,11.10
2009,02,20,15,03,11.20
2009,02,20,15,04,11.30
2009,02,20,15,05,11.40
2009,02,20,15,06,11.50
2009,02,20,15,07,11.60
2009,02,20,15,08,11.70
2009,02,20,15,09,11.80
2009,02,20,15,10,11.80
2009,02,20,15,11,11.70
2009,02,20,15,12,11.70
2009,02,20,15,13,11.70
2009,02,20,15,14,11.70
2009,02,20,15,15,11.60
2009,02,20,15,16,11.60
2009,02,20,15,17,11.60
2009,02,20,15,18,11.60
2009,02,20,15,19,11.40
2009,02,20,15,20,11.30
2009,02,20,15,21,11.20
2009,02,20,15,22,11.10
2009,02,20,15,23,11.00
2009,02,20,15,24,11.00
2009,02,20,15,25,10.90
2009,02,20,15,26,10.90
2009,02,20,15,27,10.90
2009,02,20,15,28,10.90
2009,02,20,15,29,10.90
2009,02,20,15,30,10.80
2009,02,20,15,31,10.80
2009,02,20,15,32,10.80
2009,02,20,15,33,10.80
2009,02,20,15,34,10.90
2009,02,20,15,35,11.00
2009,02,20,15,36,11.10
2009,02,20,15,37,11.20
2009,02,20,15,38,11.30
2009,02,20,15,39,11.30
2009,02,20,15,40,11.40
2009,02,20,15,41,11.50
2009,02,20,15,42,11.60
2009,02,20,15,43,11.60
2009,02,20,15,44,11.70
2009,02,20,15,45,11.70
2009,02,20,15,47,11.60
2009,02,20,15,48,11.60
2009,02,20,15,49,11.50
2009,02,20,15,50,11.40
2009,02,20,15,51,11.40
2009,02,20,15,52,11.50
2009,02,20,15,53,11.60
2009,02,20,15,54,11.60
2009,02,20,15,55,11.70
2009,02,20,15,56,11.80
2009,02,20,15,57,11.90
2009,02,20,15,58,11.90
2009,02,20,15,59,11.90
2009,02,20,16,00,11.90
2009,02,20,16,02,12.00
2009,02,20,16,03,11.90
2009,02,20,16,04,11.90
2009,02,20,16,05,11.80
2009,02,20,16,06,11.80
2009,02,20,16,07,11.80
2009,02,20,16,08,11.70
2009,02,20,16,09,11.70
2009,02,20,16,10,11.70
2009,02,20,16,11,11.70
2009,02,20,16,12,11.70
2009,02,20,16,13,11.70
2009,02,20,16,14,11.80
2009,02,20,16,15,11.80
2009,02,20,16,16,11.90
2009,02,20,16,17,11.90
2009,02,20,16,18,12.00
2009,02,20,16,19,12.00
2009,02,20,16,20,12.10
2009,02,20,16,21,12.10
2009,02,20,16,22,12.10
2009,02,20,16,23,12.10
2009,02,20,16,24,12.10
2009,02,20,16,25,12.10
2009,02,20,16,26,12.10
2009,02,20,16,27,12.10
2009,02,20,16,28,12.00
2009,02,20,16,29,11.90
2009,02,20,16,30,11.70
2009,02,20,16,31,11.50
2009,02,20,16,32,11.30
2009,02,20,16,33,11.20
2009,02,20,16,34,11.00
2009,02,20,16,35,10.80
2009,02,20,16,36,10.60
2009,02,20,16,37,10.40
2009,02,20,16,38,10.30
2009,02,20,16,39,10.20
2009,02,20,16,40,10.20
2009,02,20,16,41,10.10
2009,02,20,16,42,10.10
2009,02,20,16,43,10.10
2009,02,20,16,44,10.10
2009,02,20,16,45,10.00
2009,02,20,16,46,10.00
2009,02,20,16,47,9.90
2009,02,20,16,48,9.90
2009,02,20,16,49,9.90
2009,02,20,16,50,9.80
2009,02,20,16,51,9.70
2009,02,20,16,52,9.70
2009,02,20,16,53,9.60
2009,02,20,16,54,9.60
2009,02,20,16,55,9.50
2009,02,20,16,56,9.40
2009,02,20,16,57,9.40
2009,02,20,16,58,9.30
2009,02,20,16,59,9.30
2009,02,20,17,00,9.30
2009,02,20,17,01,9.30
2009,02,20,17,02,9.30
2009,02,20,17,03,9.20
2009,02,20,17,04,9.20
2009,02,20,17,05,9.20
2009,02,20,17,06,9.20
2009,02,20,17,07,9.10
2009,02,20,17,08,9.10
2009,02,20,17,09,9.10
2009,02,20,17,10,9.10
2009,02,20,17,11,9.00
2009,02,20,17,12,9.00
2009,02,20,17,13,9.00
2009,02,20,17,14,8.90
2009,02,20,17,15,8.90
2009,02,20,17,16,8.90
2009,02,20,17,17,8.80
2009,02,20,17,18,8.80
2009,02,20,17,19,8.80
2009,02,20,17,20,8.80
2009,02,20,17,21,8.80
2009,02,20,17,22,8.80
2009,02,20,17,23,8.70
2009,02,20,17,24,8.70
2009,02,20,17,25,8.70
2009,02,20,17,26,8.70
2009,02,20,17,27,8.70
2009,02,20,17,29,8.60
2009,02,20,17,30,8.60
2009,02,20,17,31,8.60
2009,02,20,17,32,8.60
2009,02,20,17,33,8.60
2009,02,20,17,34,8.50
2009,02,20,17,35,8.50
2009,02,20,17,36,8.40
2009,02,20,17,37,8.40
2009,02,20,17,38,8.40
2009,02,20,17,39,8.30
2009,02,20,17,40,8.30
2009,02,20,17,41,8.30
2009,02,20,17,42,8.30
2009,02,20,17,43,8.20
2009,02,20,17,44,8.20
2009,02,20,17,45,8.10
2009,02,20,17,46,8.10
2009,02,20,17,47,8.00
2009,02,20,17,48,7.90
2009,02,20,17,49,7.90
2009,02,20,17,50,7.80
2009,02,20,17,51,7.80
2009,02,20,17,52,7.70
2009,02,20,17,53,7.70
2009,02,20,17,54,7.70
2009,02,20,17,55,7.60
2009,02,20,17,56,7.60
2009,02,20,17,57,7.60
2009,02,20,17,58,7.60
2009,02,20,17,59,7.50
2009,02,20,18,00,7.40
2009,02,20,18,01,7.40
2009,02,20,18,02,7.30